Weather History for KRDU - January, 2014

Change the Weather History Date:

Thursday, January 2, 2014

  Actual Average Record
Temperature  
Mean Temperature 43 °F 41 °F  
Max Temperature 49 °F 51 °F 79 °F (1952)
Min Temperature 37 °F 31 °F 8 °F (1928)
Degree Days  
Heating Degree Days 22 24  
Month to date heating degree days 47 48  
Since 1 July heating degree days 1279 1299  
Cooling Degree Days 0 0  
Month to date cooling degree days 0 0  
Year to date cooling degree days 0 0  
Moisture  
Dew Point 39 °F    
Average Humidity 80    
Maximum Humidity 100    
Minimum Humidity 60    
Precipitation  
Precipitation 0.33 in 0.10 in 0.79 in (1979)
Month to date precipitation 0.33 0.20  
Year to date precipitation 0.33 0.20  
Snow  
Snow 0.00 in 0.00 in 4.30 in (2002)
Month to date snowfall 0.0 0.1  
Since 1 July snowfall T 0.8  
Snow Depth 0.00 in    
Sea Level Pressure  
Sea Level Pressure 29.80 in    
Wind  
Wind Speed 3 mph (WSW)    
Max Wind Speed 13 mph    
Max Gust Speed 22 mph    
Visibility 6 miles    
Events Rain    
T = Trace of Precipitation, MM = Missing Value Source: NWS Daily Summary

Daily Weather History Graph

Daily Weather History Graph

Search for Another Location

Airport or City:

Trip Planner

Search our weather history database for the weather conditions in past years. The results will help you decide how hot, cold, wet, or windy it might be!

Date:

Astronomy

Jan. 02, 2014 Rise Set
Actual Time 7:25 AM EST 5:12 PM EST
Civil Twilight 6:57 AM EST 5:41 PM EST
Nautical Twilight 6:25 AM EST 6:13 PM EST
Astronomical Twilight 5:54 AM EST 6:44 PM EST
Moon 8:09 AM EST (1/2) 7:03 PM EST (1/2)
Length of Visible Light 10h 44m
Length of Day
9h 47m
New Moon, 2% of the Moon is Illuminated
Jan 2
New Moon
Jan 7
First Quarter
Jan 15
Full
Jan 24
Last Quarter
Jan 30
New

Hourly Weather History & Observations

Time (EST) Temp. Windchill Dew Point Humidity Pressure Visibility Wind Dir Wind Speed Gust Speed Precip Events Conditions
12:51 AM 37.0 °F - 28.9 °F 73% 30.13 in 10.0 mi Calm Calm - N/A   Mostly Cloudy
1:51 AM 37.9 °F - 30.0 °F 73% 30.12 in 10.0 mi Calm Calm - N/A   Mostly Cloudy
2:51 AM 37.0 °F - 30.9 °F 79% 30.10 in 10.0 mi Calm Calm - N/A   Mostly Cloudy
3:51 AM 37.9 °F - 30.9 °F 76% 30.07 in 10.0 mi Calm Calm - N/A   Mostly Cloudy
4:51 AM 39.0 °F - 32.0 °F 76% 30.04 in 10.0 mi Calm Calm - N/A   Overcast
5:51 AM 39.0 °F - 32.0 °F 76% 30.01 in 10.0 mi Calm Calm - N/A   Overcast
6:51 AM 39.9 °F - 33.1 °F 77% 30.00 in 10.0 mi Calm Calm - N/A   Overcast
7:51 AM 41.0 °F 39.0 °F 32.0 °F 70% 29.98 in 10.0 mi South 3.5 mph - N/A   Overcast
8:51 AM 43.0 °F - 33.1 °F 68% 29.95 in 10.0 mi Calm Calm - N/A   Overcast
9:51 AM 44.1 °F 42.5 °F 33.1 °F 65% 29.96 in 10.0 mi SW 3.5 mph - N/A   Overcast
10:51 AM 45.0 °F 42.6 °F 33.1 °F 63% 29.91 in 10.0 mi WSW 4.6 mph - N/A   Overcast
11:51 AM 46.0 °F 44.8 °F 33.1 °F 61% 29.85 in 10.0 mi South 3.5 mph - N/A   Overcast
12:51 PM 46.9 °F - 35.1 °F 63% 29.80 in 10.0 mi South 5.8 mph - N/A   Overcast
1:51 PM 48.9 °F - 39.0 °F 69% 29.75 in 10.0 mi SSW 9.2 mph - N/A   Overcast
2:51 PM 48.0 °F - 43.0 °F 83% 29.73 in 3.0 mi SW 6.9 mph - 0.00 in Rain Light Rain
3:04 PM 46.4 °F 44.3 °F 44.6 °F 93% 29.72 in 2.0 mi WSW 4.6 mph - 0.00 in Rain Light Rain
3:20 PM 46.4 °F 45.2 °F 44.6 °F 93% 29.71 in 2.0 mi WSW 3.5 mph - 0.01 in Rain Light Rain
3:25 PM 46.4 °F 45.2 °F 44.6 °F 93% 29.71 in 1.5 mi SW 3.5 mph - 0.02 in Rain Light Rain
3:51 PM 46.0 °F - 45.0 °F 96% 29.70 in 1.5 mi Calm Calm - 0.04 in Rain Light Rain
4:16 PM 46.4 °F - 44.6 °F 93% 29.69 in 0.8 mi Calm Calm - 0.02 in Rain Light Rain
4:51 PM 46.0 °F - 44.1 °F 93% 29.66 in 0.8 mi Calm Calm - 0.04 in Rain Light Rain
5:51 PM 45.0 °F - 44.1 °F 97% 29.65 in 1.0 mi Calm Calm - 0.05 in Rain Light Rain
6:04 PM 44.6 °F 43.1 °F 44.6 °F 100% 29.65 in 0.5 mi NW 3.5 mph - 0.03 in Rain Light Rain
6:51 PM 45.0 °F - 44.1 °F 97% 29.63 in 1.2 mi Calm Calm - 0.10 in Rain Light Rain
7:32 PM 44.6 °F 43.1 °F 44.6 °F 100% 29.62 in 1.2 mi WSW 3.5 mph - 0.02 in Rain Light Rain
7:51 PM 45.0 °F 43.5 °F 44.1 °F 97% 29.63 in 1.2 mi West 3.5 mph - 0.04 in Rain Light Rain
8:12 PM 44.6 °F 41.4 °F 44.6 °F 100% 29.62 in 1.2 mi WNW 5.8 mph - 0.02 in Rain Light Rain
8:51 PM 45.0 °F 43.5 °F 44.1 °F 97% 29.59 in 1.2 mi NNE 3.5 mph - 0.06 in Rain Light Rain
9:27 PM 44.6 °F - 44.6 °F 100% 29.59 in 7.0 mi Calm Calm - 0.00 in   Overcast
9:51 PM 45.0 °F 41.8 °F 43.0 °F 93% 29.62 in 7.0 mi WNW 5.8 mph - 0.00 in   Overcast
10:51 PM 44.1 °F 39.5 °F 42.1 °F 93% 29.62 in 10.0 mi WNW 8.1 mph - 0.00 in Rain Light Rain
11:09 PM 44.6 °F 38.4 °F 41.0 °F 87% 29.63 in 10.0 mi WNW 12.7 mph 19.6 mph 0.00 in   Mostly Cloudy
11:51 PM 43.0 °F 38.2 °F 37.0 °F 80% 29.65 in 10.0 mi WNW 8.1 mph 18.4 mph 0.00 in   Mostly Cloudy